Home > Weather > Niederkassel > Past weeks

Flag for Germany Past Weather in Niederkassel, North Rhine-Westphalia, Germany — Yesterday and Last 2 Weeks

Now
62 °F

Overcast.


Feels Like: 62 °F
Forecast: 59 / 74 °F
Wind: 5 mph from Southwest

Location: Aachen-Orsbach

Current Time: Jul 28, 2016 at 10:51:42 AM

Latest Report: Jul 28, 2016 at 9:00 AM


Visibility: 9 mi

Pressure: 29.99 "Hg

Humidity: 93%

Dew Point: 60 °F

Location of NiederkasselLocation

Past Weather in Niederkassel — Graph

°F

Niederkassel Temperature Yesterday

Maximum temperature yesterday: 71 °F (at 4:00 PM)
Minimum temperature yesterday: 56 °F (at 7:00 AM)
Average temperature yesterday: 64 °F

High & Low Weather Summary for the Past Weeks

 TemperatureHumidityPressure
High92 °F (Jul 20, 4:00 PM)99% (Jul 24, 7:00 AM)30.32 "Hg (Jul 24, 7:00 AM)
Low48 °F (Jul 14, 3:00 AM)29% (Jul 20, 3:00 PM)29.85 "Hg (Jul 20, 4:00 PM)
Average67 °F74%30.10 "Hg
* Reported Jul 13 9:00 AM — Jul 28 9:00 AM, Niederkassel, Weather by CustomWeather, © 2016

Note: Actual official high and low records may vary slightly from our data, if they occured in-between our weather recording intervals... More about our weather records

Advertising

Niederkassel Weather History for the Previous 24 Hours

Scroll right to see more
 ConditionsComfort  
Time TempWeatherWind HumidityBarometerVisibility
9:00 AM
Thu, Jul 28
62 °FOvercast.5 mph93%29.99 "Hg9 mi
7:00 AM60 °FLight rain. Low clouds.3 mph96%30.00 "Hg4 mi
6:00 AM61 °FLight rain. Overcast.5 mph95%30.01 "Hg2 mi
4:00 AM64 °FOvercast.2 mph80%30.01 "Hg16 mi
3:00 AM64 °FOvercast.3 mph78%30.01 "Hg15 mi
1:00 AM65 °FOvercast.3 mph75%30.03 "Hg17 mi
12:00 AM65 °FOvercast.3 mph75%30.04 "Hg16 mi
10:00 PM
Wed, Jul 27
66 °FOvercast.3 mph71%30.04 "Hg13 mi
9:00 PM67 °FOvercast.5 mph67%30.03 "Hg12 mi
7:00 PM68 °FOvercast.6 mph63%30.01 "Hg22 mi
6:00 PM69 °FOvercast.7 mph59%30.02 "Hg12 mi
4:00 PM71 °FOvercast.7 mph60%30.03 "Hg19 mi
3:00 PM69 °FOvercast.7 mph58%30.04 "Hg9 mi
1:00 PM69 °FPartly sunny.6 mph61%30.05 "Hg12 mi
12:00 PM68 °FPartly sunny.5 mph63%30.07 "Hg9 mi
10:00 AM62 °FOvercast.5 mph74%30.08 "Hg12 mi
Weather by CustomWeather, © 2016

See weather overviewHow to use our weather pages